sat.trackr.live / text

‹ back to catalog

STARLINK-2506

NORAD 48315 · 2021-036AR

PAYLOAD ACTIVE UNKNOWN

§ Identity

Operator
Country
US
Launch date
2021-04-29
Launch site
AFETR
Launch vehicle
Mass (kg)
RCS (m²)

Purposes: comms

External: N2YO · Heavens-Above · Gunter

§ Orbital elements

Epoch: 2026-05-25T03:01:18.763104Z

Period
94.01 min
Inclination
53.1606°
Eccentricity
0.0001698
Mean motion
15.31695619 rev/d
Perigee alt
469.6 km
Apogee alt
471.9 km
Semi-major
6,848.9 km
B*
6.9170e-5
RAAN
103.4247°
Arg perigee
80.0972°
Mean anomaly
280.0221°
Rev number
27,976

§ Raw data

STARLINK-25061 48315U 21036AR  26145.12591161  .00001781  00000+0  69170-4 0  99902 48315  53.1606 103.4247 0001698  80.0972 280.0221 15.31695619279767

JSON: /api/v1/satellites/48315 · /tle

For live sub-satellite position, see the globe view (requires WebGL).

§ Visibility from observer

Set your observer location to see the next 7 days of passes ≥ 10°. The values pass through the URL so the page stays shareable.

No JS? Fill the form by hand. The geolocation button needs JavaScript.